| time (UTC) | temp C | wind direction | speed KPH | gust KPH | rain 1hr cm | rain 24hr cm | rain mn cm | humidity % | barometer mb |
| 20260506155112 | 25 | 121 | 4.8 | 24.1 | 0.00 | 0.00 | 0.00 | 39 | 1004.5 |
| 20260506154105 | 25 | 144 | 4.8 | 17.7 | 0.00 | 0.00 | 0.00 | 37 | 1004.2 |
| 20260506153058 | 26 | 121 | 4.8 | 12.9 | 0.00 | 0.00 | 0.00 | 37 | 1004.3 |
| 20260506152058 | 26 | 151 | 6.4 | 17.7 | 0.00 | 0.00 | 0.00 | 36 | 1004.4 |
| 20260506151051 | 26 | 110 | 8.0 | 17.7 | 0.00 | 0.00 | 0.00 | 36 | 1004.5 |
| 20260506150044 | 26 | 111 | 6.4 | 22.5 | 0.00 | 0.00 | 0.00 | 38 | 1004.6 |
| 20260506145038 | 26 | 91 | 9.7 | 22.5 | 0.00 | 0.00 | 0.00 | 38 | 1004.6 |
| 20260506144031 | 26 | 107 | 8.0 | 24.1 | 0.00 | 0.00 | 0.00 | 38 | 1004.8 |
| 20260506143024 | 25 | 117 | 8.0 | 22.5 | 0.00 | 0.00 | 0.00 | 38 | 1004.9 |
| 20260506142016 | 25 | 90 | 9.7 | 25.7 | 0.00 | 0.00 | 0.00 | 38 | 1005.0 |
| 20260506141008 | 25 | 113 | 9.7 | 25.7 | 0.00 | 0.00 | 0.00 | 37 | 1005.4 |
| 20260506140001 | 26 | 103 | 9.7 | 24.1 | 0.00 | 0.00 | 0.00 | 36 | 1005.2 |
| 20260506134954 | 26 | 112 | 9.7 | 27.4 | 0.00 | 0.00 | 0.00 | 37 | 1005.4 |
| 20260506133947 | 25 | 101 | 11.3 | 27.4 | 0.00 | 0.00 | 0.00 | 37 | 1005.5 |
| 20260506132939 | 25 | 94 | 9.7 | 25.7 | 0.00 | 0.00 | 0.00 | 39 | 1005.5 |
| 20260506131932 | 25 | 93 | 11.3 | 29.0 | 0.00 | 0.00 | 0.00 | 39 | 1006.1 |
| 20260506130924 | 25 | 91 | 11.3 | 27.4 | 0.00 | 0.00 | 0.00 | 40 | 1006.4 |
| 20260506125917 | 24 | 89 | 9.7 | 24.1 | 0.00 | 0.00 | 0.00 | 40 | 1006.5 |
| 20260506124911 | 23 | 103 | 9.7 | 24.1 | 0.00 | 0.00 | 0.00 | 41 | 1006.6 |
| 20260506123904 | 25 | 107 | 9.7 | 25.7 | 0.00 | 0.00 | 0.00 | 40 | 1006.6 |
| 20260506122856 | 25 | 113 | 8.0 | 22.5 | 0.00 | 0.00 | 0.00 | 39 | 1007.1 |
| 20260506121848 | 25 | 108 | 8.0 | 24.1 | 0.00 | 0.00 | 0.00 | 38 | 1006.9 |
| 20260506120842 | 25 | 100 | 9.7 | 27.4 | 0.00 | 0.00 | 0.00 | 41 | 1007.0 |
| 20260506115834 | 24 | 111 | 9.7 | 22.5 | 0.00 | 0.00 | 0.00 | 41 | 1007.2 |
| 20260506114827 | 24 | 92 | 11.3 | 27.4 | 0.00 | 0.00 | 0.00 | 40 | 1007.3 |
| 20260506113827 | 24 | 105 | 9.7 | 24.1 | 0.00 | 0.00 | 0.00 | 41 | 1007.3 |
| 20260506112823 | 23 | 84 | 9.7 | 20.9 | 0.00 | 0.00 | 0.00 | 43 | 1007.6 |
| 20260506111815 | 25 | 137 | 8.0 | 22.5 | 0.00 | 0.00 | 0.00 | 42 | 1007.6 |
| 20260506110808 | 24 | 122 | 6.4 | 20.9 | 0.00 | 0.00 | 0.00 | 44 | 1007.7 |
| 20260506105800 | 23 | 87 | 11.3 | 25.7 | 0.00 | 0.00 | 0.00 | 45 | 1007.8 |
| 20260506104753 | 23 | 112 | 8.0 | 22.5 | 0.00 | 0.00 | 0.00 | 44 | 1008.0 |
| 20260506103745 | 23 | 104 | 8.0 | 29.0 | 0.00 | 0.00 | 0.00 | 42 | 1008.0 |
| 20260506102738 | 23 | 96 | 9.7 | 22.5 | 0.00 | 0.00 | 0.00 | 44 | 1007.9 |
| 20260506101738 | 23 | 87 | 9.7 | 24.1 | 0.00 | 0.00 | 0.00 | 45 | 1008.3 |
| 20260506100732 | 23 | 88 | 9.7 | 25.7 | 0.00 | 0.00 | 0.00 | 43 | 1008.5 |
| 20260506095725 | 23 | 110 | 6.4 | 24.1 | 0.00 | 0.00 | 0.00 | 44 | 1008.6 |
| 20260506094717 | 23 | 97 | 8.0 | 16.1 | 0.00 | 0.00 | 0.00 | 45 | 1008.6 |
| 20260506093712 | 23 | 91 | 4.8 | 12.9 | 0.00 | 0.00 | 0.00 | 46 | 1008.8 |
| 20260506092704 | 22 | 96 | 6.4 | 17.7 | 0.00 | 0.00 | 0.00 | 48 | 1009.0 |
| 20260506091656 | 23 | 127 | 4.8 | 14.5 | 0.00 | 0.00 | 0.00 | 44 | 1008.9 |
| 20260506090649 | 23 | 116 | 3.2 | 11.3 | 0.00 | 0.00 | 0.00 | 44 | 1008.8 |
| 20260506085641 | 23 | 130 | 3.2 | 9.7 | 0.00 | 0.00 | 0.00 | 42 | 1008.8 |
| 20260506084634 | 22 | 143 | 3.2 | 11.3 | 0.00 | 0.00 | 0.00 | 44 | 1009.1 |
| 20260506083627 | 22 | 149 | 1.6 | 6.4 | 0.00 | 0.00 | 0.00 | 43 | 1009.1 |
| 20260506082619 | 22 | 166 | 1.6 | 4.8 | 0.00 | 0.00 | 0.00 | 46 | 1009.1 |
| 20260506081612 | 21 | 219 | 3.2 | 9.7 | 0.00 | 0.00 | 0.00 | 48 | 1009.2 |
| 20260506080604 | 20 | 239 | 6.4 | 12.9 | 0.00 | 0.00 | 0.00 | 50 | 1009.3 |
| 20260506072536 | 20 | 240 | 9.7 | 16.1 | 0.00 | 0.00 | 0.00 | 56 | 1009.7 |
| 20260506071528 | 20 | 230 | 6.4 | 14.5 | 0.00 | 0.00 | 0.00 | 55 | 1009.8 |
| 20260506070521 | 19 | 235 | 6.4 | 12.9 | 0.00 | 0.00 | 0.00 | 56 | 1009.9 |
| 20260506062452 | 17 | 217 | 3.2 | 12.9 | 0.00 | 0.00 | 0.00 | 66 | 1009.7 |
| 20260506061445 | 17 | 211 | 1.6 | 4.8 | 0.00 | 0.00 | 0.00 | 67 | 1009.9 |
| 20260506060436 | 17 | 209 | 1.6 | 3.2 | 0.00 | 0.00 | 0.00 | 68 | 1009.8 |
| 20260506051401 | 16 | 241 | 6.4 | 12.9 | 0.00 | 0.00 | 0.00 | 74 | 1009.8 |
| 20260506050355 | 15 | 246 | 8.0 | 14.5 | 0.00 | 0.00 | 0.00 | 76 | 1009.7 |
| 20260506044340 | 14 | 243 | 8.0 | 14.5 | 0.00 | 0.00 | 0.00 | 79 | 1009.4 |
| 20260506043333 | 15 | 240 | 9.7 | 16.1 | 0.00 | 0.00 | 0.00 | 78 | 1009.4 |
| 20260506042325 | 14 | 239 | 6.4 | 11.3 | 0.00 | 0.00 | 0.00 | 80 | 1009.4 |
| 20260506041317 | 13 | 222 | 1.6 | 6.4 | 0.00 | 0.00 | 0.00 | 83 | 1009.4 |
| 20260506040312 | 13 | 236 | 4.8 | 11.3 | 0.00 | 0.00 | 0.00 | 82 | 1009.2 |
| 20260506035306 | 13 | 236 | 4.8 | 11.3 | 0.00 | 0.00 | 0.00 | 83 | 1008.9 |
| 20260506034256 | 12 | 183 | 0.0 | 4.8 | 0.00 | 0.00 | 0.00 | 83 | 1009.1 |
| 20260506033249 | 13 | 153 | 0.0 | 3.2 | 0.00 | 0.00 | 0.00 | 80 | 1009.1 |
| 20260506032242 | 12 | 183 | 0.0 | 3.2 | 0.00 | 0.00 | 0.00 | 82 | 1008.9 |
| 20260506031235 | 12 | 198 | 0.0 | 0.0 | 0.00 | 0.00 | 0.00 | 80 | 1009.1 |
| 20260506030227 | 13 | 205 | 0.0 | 1.6 | 0.00 | 0.00 | 0.00 | 77 | 1009.1 |
| 20260506025219 | 13 | 210 | 0.0 | 4.8 | 0.00 | 0.00 | 0.00 | 77 | 1009.1 |
| 20260506024212 | 13 | 221 | 1.6 | 4.8 | 0.00 | 0.00 | 0.00 | 75 | 1009.1 |
| 20260506023205 | 13 | 222 | 1.6 | 4.8 | 0.00 | 0.00 | 0.00 | 77 | 1009.0 |
| 20260506022158 | 13 | 219 | 1.6 | 3.2 | 0.00 | 0.00 | 0.00 | 77 | 1009.0 |
| 20260506021152 | 15 | 227 | 3.2 | 6.4 | 0.00 | 0.00 | 0.00 | 72 | 1008.8 |
| 20260506020144 | 16 | 241 | 4.8 | 9.7 | 0.00 | 0.00 | 0.00 | 69 | 1009.1 |
| 20260506015137 | 16 | 244 | 6.4 | 9.7 | 0.00 | 0.00 | 0.00 | 67 | 1008.8 |
| 20260506014129 | 16 | 244 | 6.4 | 9.7 | 0.00 | 0.00 | 0.00 | 67 | 1008.9 |
| 20260506013122 | 16 | 243 | 6.4 | 14.5 | 0.00 | 0.00 | 0.00 | 66 | 1008.7 |
| 20260506012115 | 16 | 250 | 9.7 | 14.5 | 0.00 | 0.00 | 0.00 | 64 | 1008.7 |
| 20260506011108 | 16 | 243 | 8.0 | 12.9 | 0.00 | 0.00 | 0.00 | 64 | 1008.8 |
| 20260506010100 | 16 | 241 | 6.4 | 12.9 | 0.00 | 0.00 | 0.00 | 64 | 1008.6 |
| 20260506005052 | 16 | 241 | 6.4 | 12.9 | 0.00 | 0.00 | 0.00 | 64 | 1008.6 |
| 20260506004045 | 16 | 239 | 4.8 | 9.7 | 0.00 | 0.00 | 0.00 | 65 | 1008.3 |
| 20260506003038 | 13 | 206 | 0.0 | 0.0 | 0.00 | 0.00 | 0.00 | 75 | 1008.1 |
| 20260506002032 | 13 | 191 | 0.0 | 0.0 | 0.00 | 0.00 | 0.00 | 73 | 1007.9 |
| 20260506001024 | 13 | 207 | 0.0 | 1.6 | 0.00 | 0.00 | 0.00 | 73 | 1007.6 |
| 20260506000017 | 14 | 208 | 0.0 | 1.6 | 0.00 | 0.00 | 0.00 | 70 | 1007.6 |
| 20260505235010 | 14 | 216 | 0.0 | 3.2 | 0.00 | 0.00 | 0.00 | 72 | 1007.7 |
| 20260505234002 | 13 | 205 | 0.0 | 0.0 | 0.00 | 0.00 | 0.00 | 73 | 1007.6 |
| 20260505232955 | 13 | 183 | 0.0 | 0.0 | 0.00 | 0.00 | 0.00 | 71 | 1007.3 |
| 20260505231947 | 13 | 200 | 0.0 | 1.6 | 0.00 | 0.00 | 0.00 | 73 | 1007.4 |
| 20260505230940 | 13 | 190 | 0.0 | 1.6 | 0.00 | 0.00 | 0.00 | 73 | 1007.3 |
| 20260505225933 | 12 | 196 | 0.0 | 0.0 | 0.00 | 0.00 | 0.00 | 75 | 1007.2 |
| 20260505224925 | 12 | 211 | 0.0 | 3.2 | 0.00 | 0.00 | 0.00 | 74 | 1007.1 |
| 20260505223918 | 12 | 206 | 0.0 | 3.2 | 0.00 | 0.00 | 0.00 | 74 | 1006.8 |
| 20260505222912 | 12 | 215 | 0.0 | 3.2 | 0.00 | 0.00 | 0.00 | 73 | 1006.8 |
| 20260505221905 | 12 | 217 | 0.0 | 1.6 | 0.00 | 0.00 | 0.00 | 72 | 1006.6 |
| 20260505220858 | 12 | 207 | 0.0 | 1.6 | 0.00 | 0.00 | 0.00 | 72 | 1006.5 |
| 20260505215850 | 13 | 205 | 0.0 | 1.6 | 0.00 | 0.00 | 0.00 | 68 | 1006.2 |
| 20260505214843 | 14 | 204 | 0.0 | 1.6 | 0.00 | 0.00 | 0.00 | 64 | 1006.2 |
| 20260505213835 | 15 | 186 | 0.0 | 3.2 | 0.00 | 0.00 | 0.00 | 61 | 1005.9 |
| 20260505212828 | 16 | 108 | 3.2 | 11.3 | 0.00 | 0.00 | 0.00 | 59 | 1006.1 |
| 20260505211821 | 16 | 94 | 3.2 | 11.3 | 0.00 | 0.00 | 0.00 | 59 | 1005.8 |
| 20260505210813 | 15 | 142 | 1.6 | 4.8 | 0.00 | 0.00 | 0.00 | 61 | 1005.9 |
| 20260505205806 | 15 | 221 | 0.0 | 3.2 | 0.00 | 0.00 | 0.00 | 60 | 1005.5 |
| 20260505204800 | 16 | 204 | 0.0 | 3.2 | 0.00 | 0.00 | 0.00 | 59 | 1005.4 |
| 20260505203752 | 16 | 148 | 1.6 | 4.8 | 0.00 | 0.00 | 0.00 | 57 | 1005.5 |
| 20260505202745 | 16 | 136 | 1.6 | 6.4 | 0.00 | 0.00 | 0.00 | 57 | 1005.5 |
| 20260505201738 | 16 | 84 | 4.8 | 9.7 | 0.00 | 0.00 | 0.00 | 56 | 1005.1 |
| 20260505200730 | 17 | 86 | 4.8 | 9.7 | 0.00 | 0.00 | 0.00 | 55 | 1005.2 |
| 20260505195723 | 17 | 81 | 4.8 | 11.3 | 0.00 | 0.00 | 0.00 | 55 | 1005.1 |
| 20260505194715 | 17 | 74 | 4.8 | 11.3 | 0.00 | 0.00 | 0.00 | 54 | 1005.2 |
| 20260505193708 | 17 | 83 | 6.4 | 12.9 | 0.00 | 0.00 | 0.00 | 53 | 1005.0 |
| 20260505192700 | 17 | 80 | 6.4 | 12.9 | 0.00 | 0.00 | 0.00 | 52 | 1005.1 |
| 20260505191654 | 18 | 88 | 6.4 | 12.9 | 0.00 | 0.00 | 0.00 | 51 | 1005.1 |
| 20260505190645 | 18 | 92 | 4.8 | 11.3 | 0.00 | 0.00 | 0.00 | 50 | 1004.9 |
| 20260505185643 | 18 | 89 | 4.8 | 12.9 | 0.00 | 0.00 | 0.00 | 49 | 1004.9 |
| 20260505184632 | 19 | 96 | 4.8 | 9.7 | 0.00 | 0.00 | 0.00 | 49 | 1004.8 |
| 20260505183632 | 20 | 97 | 4.8 | 11.3 | 0.00 | 0.00 | 0.00 | 47 | 1004.7 |
| 20260505182627 | 20 | 90 | 4.8 | 14.5 | 0.00 | 0.00 | 0.00 | 46 | 1004.9 |
| 20260505181620 | 20 | 105 | 4.8 | 11.3 | 0.00 | 0.00 | 0.00 | 46 | 1004.9 |
| 20260505180611 | 21 | 98 | 4.8 | 16.1 | 0.00 | 0.00 | 0.00 | 45 | 1004.9 |
| 20260505175605 | 21 | 107 | 4.8 | 14.5 | 0.00 | 0.00 | 0.00 | 44 | 1004.9 |
| 20260505174604 | 22 | 91 | 6.4 | 14.5 | 0.00 | 0.00 | 0.00 | 43 | 1004.8 |
| 20260505173601 | 22 | 92 | 6.4 | 16.1 | 0.00 | 0.00 | 0.00 | 42 | 1004.9 |
| 20260505172553 | 22 | 94 | 6.4 | 16.1 | 0.00 | 0.00 | 0.00 | 41 | 1004.6 |
| 20260505171546 | 23 | 98 | 6.4 | 17.7 | 0.00 | 0.00 | 0.00 | 41 | 1004.9 |
| 20260505170537 | 23 | 102 | 6.4 | 12.9 | 0.00 | 0.00 | 0.00 | 40 | 1005.0 |
| 20260505165531 | 23 | 115 | 6.4 | 20.9 | 0.00 | 0.00 | 0.00 | 39 | 1004.9 |
| 20260505164523 | 24 | 104 | 8.0 | 20.9 | 0.00 | 0.00 | 0.00 | 38 | 1005.0 |
| 20260505163516 | 24 | 111 | 6.4 | 22.5 | 0.00 | 0.00 | 0.00 | 38 | 1004.7 |
| 20260505162509 | 25 | 122 | 4.8 | 17.7 | 0.00 | 0.00 | 0.00 | 36 | 1004.7 |
| 20260505161501 | 25 | 149 | 6.4 | 17.7 | 0.00 | 0.00 | 0.00 | 34 | 1004.9 |
| 20260505160453 | 26 | 110 | 8.0 | 22.5 | 0.00 | 0.00 | 0.00 | 33 | 1004.9 |